Погода в Копыловке

Россия / Томская область     58°40′20″N   82°16′01″E
темп.,
°C
ветер,
м/с
пор.,
м/с
влажн.,
%
обл.,
%
осадки,
мм/ч
давл.,
гПа
погр.,
м
13 мая, чт
чт1301:00+11с4116099 0.0 1014394
04:00+10ссз3778100 0.1 1014349
07:00+9ссз4686100 0.1 1015413
10:00+10ссз447595 0.0 1015487
13:00+11сз346690 0.0 1015869
16:00+14сз244652 0.0 10141651
19:00+15сз56315 0.0 10142129
22:00+10сз6116161 0.0 1015610
14 мая, пт
пт1401:00+8ссз5971100 0.0 10161032
04:00+5ссз596147 0.0 10181076
07:00+3сз510605 0.0 1020865
10:00+7сз68355 0.0 10211073
13:00+11сз682571 0.0 10211487
16:00+13зсз6822100 0.0 10191548
19:00+8зсз1366100 0.9 1020258
22:00+8ю51169100 0.6 1016407
15 мая, сб
сб1501:00+9юз515717 0.8 1013421
04:00+10зюз4138428 0.1 1012338
07:00+13з4119038 0.1 1012377
10:00+17з477185 0.0 1012490
13:00+21з61054100 0.0 10101151
16:00+21з61359100 2.4 10091442
19:00+21ссз81463100 3.4 10091351
22:00+15сз3794100 6.4 1010247
16 мая, вс
вс1601:00+10св3691100 6.4 1012400
04:00+8св3688100 0.0 1013343
07:00+7св4684100 0.0 1015357
10:00+10св4568100 0.0 1016642
13:00+12ссв335557 0.0 10171016
16:00+16ссз234170 0.0 10171454
19:00+14ссз3446100 0.0 1017564
22:00+12с225399 0.0 101775
17 мая, пн
пн1701:00+9в225878 0.0 101716
04:00+10ююв2561100 0.0 1015150
07:00+10ю41187100 0.1 1012345
10:00+17ююз697177 0.0 1008603
13:00+25зюз71446100 0.2 10051550
16:00+28зсз8163495 0.0 10043253
19:00+22с7105811 0.1 1003698
22:00+16з2890100 4.9 1004347